�N����,����,�~����,�C��,���x,�C��,����,���ϕ���,�ő�u�ԕ���,�ő厞����,���˗�,�I�_���x,�n�����x,�ő啗���N��,DTYPE
"23/11/17","00:10",0.4,12.3,92.4,1010.4,287.3,1.2,1.7,287.4,0.00,11.1,13.6,"00:04:00",1
"23/11/17","00:20",0.4,12.3,92.8,1009.7,297.8,1.3,2.0,314.1,0.00,11.2,13.3,"00:11:04",1
"23/11/17","00:30",0.4,12.3,93.1,1009.3,287.3,1.2,1.6,313.8,0.00,11.3,13.5,"00:28:40",1
"23/11/17","00:40",0.2,12.4,93.4,1009.3,305.8,1.5,2.0,249.9,0.00,11.4,13.2,"00:39:20",1
"23/11/17","00:50",0.0,12.5,93.6,1009.0,269.4,1.3,1.8,259.0,0.00,11.5,13.3,"00:43:20",1
"23/11/17","01:00",0.0,12.5,93.9,1008.8,278.6,1.2,2.0,286.6,0.00,11.6,13.5,"00:53:22",1
"23/11/17","01:10",0.0,12.6,94.2,1009.0,276.2,1.5,2.6,252.3,0.00,11.7,13.3,"01:09:20",1
"23/11/17","01:20",0.0,12.6,94.4,1008.8,300.5,1.5,2.0,280.7,0.00,11.8,13.3,"01:10:26",1
"23/11/17","01:30",0.2,12.5,94.6,1008.6,321.9,1.2,1.6,302.6,0.00,11.7,13.5,"01:24:28",1
"23/11/17","01:40",0.0,12.5,94.8,1008.6,294.7,1.3,1.9,334.3,0.00,11.7,13.5,"01:37:30",1
"23/11/17","01:50",0.2,12.4,94.9,1008.1,290.5,1.1,1.4,311.3,0.00,11.6,13.5,"01:40:18",1
"23/11/17","02:00",0.4,12.4,95.1,1007.8,299.9,0.8,1.3,334.9,0.00,11.7,13.4,"01:53:16",1
"23/11/17","02:10",0.2,12.4,95.3,1007.8,279.5,1.3,1.7,307.2,0.00,11.7,13.3,"02:09:08",1
"23/11/17","02:20",0.2,12.5,95.4,1007.6,295.3,1.2,1.7,308.4,0.00,11.8,13.4,"02:13:24",1
"23/11/17","02:30",0.2,12.5,95.5,1007.1,287.5,1.2,1.8,293.6,0.00,11.8,13.5,"02:24:18",1
"23/11/17","02:40",0.2,12.5,95.7,1007.8,295.8,1.1,1.7,318.9,0.00,11.9,13.5,"02:31:58",1
"23/11/17","02:50",0.2,12.5,95.8,1007.4,283.7,1.1,1.4,292.0,0.00,11.9,13.4,"02:41:20",1
"23/11/17","03:00",0.2,12.5,96.0,1007.1,315.6,1.5,1.9,320.4,0.00,11.9,13.7,"02:53:38",1
"23/11/17","03:10",0.6,12.5,96.0,1006.9,299.2,1.2,1.4,298.5,0.00,11.9,13.4,"03:00:18",1
"23/11/17","03:20",0.2,12.5,96.2,1006.2,271.7,1.0,1.6,260.1,0.00,12.0,13.5,"03:17:58",1
"23/11/17","03:30",0.4,12.5,96.3,1006.2,270.0,1.2,2.2,255.1,0.00,12.0,13.4,"03:26:30",1
"23/11/17","03:40",0.4,12.5,96.4,1006.0,278.9,1.3,2.0,250.8,0.00,12.0,13.5,"03:31:30",1
"23/11/17","03:50",0.4,12.5,96.5,1006.2,293.6,1.2,1.2,290.9,0.00,12.0,13.4,"03:40:58",1
"23/11/17","04:00",0.4,12.5,96.6,1006.0,296.3,1.2,1.6,285.7,0.00,12.0,13.3,"03:56:32",1
"23/11/17","04:10",0.6,12.5,96.7,1005.5,295.3,1.2,1.7,304.4,0.00,12.0,13.5,"04:05:52",1
"23/11/17","04:20",0.6,12.5,96.8,1006.2,301.0,1.2,1.6,319.3,0.00,12.0,13.5,"04:10:48",1
"23/11/17","04:30",0.4,12.5,96.9,1006.0,302.7,1.3,1.7,318.0,0.00,12.1,13.4,"04:24:10",1
"23/11/17","04:40",0.4,12.5,97.0,1005.7,304.5,1.6,2.2,310.5,0.00,12.1,13.3,"04:33:50",1
"23/11/17","04:50",0.4,12.5,97.1,1005.7,305.6,1.7,2.9,329.8,0.00,12.1,13.5,"04:45:54",1
"23/11/17","05:00",0.6,12.5,97.1,1006.0,316.3,1.6,2.2,321.4,0.00,12.1,13.2,"04:52:54",1
"23/11/17","05:10",0.8,12.5,97.2,1006.0,306.5,1.5,2.1,310.0,0.00,12.1,13.5,"05:03:22",1
"23/11/17","05:20",0.4,12.4,97.3,1006.0,318.2,1.5,1.9,320.4,0.00,12.0,13.2,"05:16:38",1
"23/11/17","05:30",0.6,12.5,97.4,1005.2,313.7,1.8,2.6,314.6,0.00,12.1,13.6,"05:27:16",1
"23/11/17","05:40",0.6,12.5,97.4,1004.8,248.2,1.3,2.0,223.2,0.00,12.1,13.5,"05:36:08",1
"23/11/17","05:50",0.6,12.6,97.5,1005.2,268.4,1.6,2.5,289.1,0.00,12.3,13.5,"05:47:54",1
"23/11/17","06:00",0.4,12.6,97.5,1005.2,292.7,1.7,2.6,343.3,0.00,12.3,13.3,"05:56:56",1
"23/11/17","06:10",0.6,12.6,97.6,1004.8,325.3,1.2,2.2,343.7,0.00,12.3,13.5,"06:01:08",1
"23/11/17","06:20",0.2,12.5,97.7,1004.8,259.2,1.1,1.6,254.8,0.00,12.2,13.4,"06:13:58",1
"23/11/17","06:30",0.6,12.5,97.8,1005.0,289.1,1.5,3.1,312.0,0.00,12.2,13.2,"06:29:46",1
"23/11/17","06:40",0.4,12.5,97.8,1004.8,292.7,1.6,2.7,311.6,0.00,12.2,13.4,"06:35:56",1
"23/11/17","06:50",0.4,12.5,97.8,1005.0,277.4,1.1,1.6,258.8,0.00,12.2,13.2,"06:41:50",1
"23/11/17","07:00",0.6,12.4,97.9,1005.2,298.2,1.2,1.9,321.2,0.00,12.1,13.3,"06:51:52",1
"23/11/17","07:10",0.6,12.4,97.9,1005.0,304.3,1.1,1.7,333.3,0.00,12.1,13.3,"07:04:16",1
"23/11/17","07:20",0.8,12.4,98.0,1004.5,300.8,0.6,1.4,319.5,0.00,12.1,13.2,"07:16:52",1
"23/11/17","07:30",0.6,12.6,97.5,1004.5,252.1,0.6,1.6,266.3,0.00,12.3,13.3,"07:28:48",1
"23/11/17","07:40",0.4,12.5,98.0,1004.3,244.8,1.0,1.8,243.5,0.00,12.2,13.5,"07:36:38",1
"23/11/17","07:50",0.4,12.6,97.6,1003.6,314.2,0.5,1.0,312.2,0.00,12.3,13.3,"07:42:00",1
"23/11/17","08:00",0.4,12.6,98.1,1003.4,210.9,0.6,1.7,218.2,0.00,12.3,13.2,"07:50:24",1
"23/11/17","08:10",0.2,12.9,97.6,1003.8,278.6,1.1,2.1,307.2,0.00,12.6,13.3,"08:07:12",1
"23/11/17","08:20",0.2,12.7,98.1,1003.8,300.8,1.7,2.6,312.7,0.00,12.4,13.2,"08:14:20",1
"23/11/17","08:30",0.0,12.7,97.7,1003.4,309.6,1.5,2.5,316.9,0.00,12.4,13.3,"08:28:50",1
"23/11/17","08:40",0.0,12.7,98.2,1002.9,333.1,1.0,2.1,353.3,0.03,12.5,13.4,"08:30:50",1
"23/11/17","08:50",0.0,12.7,97.5,1003.6,263.2,1.8,3.5,292.1,0.00,12.4,13.4,"08:49:46",1
"23/11/17","09:00",0.0,11.9,98.3,1003.1,313.7,2.7,7.4,321.2,0.00,11.7,13.4,"08:52:20",1
"23/11/17","09:10",0.0,12.0,97.9,1003.1,297.1,1.8,2.8,331.1,0.00,11.7,13.3,"09:05:30",1
"23/11/17","09:20",0.0,11.7,98.3,1003.1,314.1,2.2,3.5,315.5,0.02,11.5,13.4,"09:14:46",1
"23/11/17","09:30",0.0,11.6,97.7,1002.9,314.3,2.5,4.8,320.7,0.04,11.3,13.4,"09:21:00",1
"23/11/17","09:40",0.0,11.6,98.0,1003.1,314.6,3.0,5.0,328.3,0.06,11.3,13.3,"09:34:16",1
"23/11/17","09:50",0.0,11.6,97.3,1003.6,312.9,3.1,5.9,336.9,0.03,11.2,13.3,"09:43:24",1
"23/11/17","10:00",0.0,11.7,97.5,1003.4,305.0,2.5,5.2,321.3,0.04,11.4,13.4,"09:51:42",1
"23/11/17","10:10",0.0,12.0,97.4,1003.4,295.9,1.6,3.1,344.8,0.05,11.6,13.3,"10:03:28",1
"23/11/17","10:20",0.0,12.1,96.9,1003.4,277.2,1.6,2.8,259.2,0.10,11.7,13.4,"10:14:00",1
"23/11/17","10:30",0.0,12.3,96.6,1003.4,298.4,1.7,3.1,317.9,0.12,11.8,13.2,"10:29:20",1
"23/11/17","10:40",0.0,12.7,96.0,1002.9,285.3,1.8,3.3,332.0,0.18,12.1,13.3,"10:35:44",1
"23/11/17","10:50",0.0,13.1,95.2,1003.1,296.6,1.7,3.7,316.5,0.20,12.4,13.4,"10:48:32",1
"23/11/17","11:00",0.0,13.4,93.9,1002.9,284.4,2.1,4.2,342.7,0.18,12.5,13.5,"10:55:52",1
"23/11/17","11:10",0.0,13.9,91.6,1003.1,286.8,2.1,4.1,330.7,0.33,12.6,13.3,"11:02:40",1
"23/11/17","11:20",0.0,14.4,88.8,1002.9,276.6,2.5,6.5,241.7,0.42,12.6,13.5,"11:10:08",1
"23/11/17","11:30",0.0,14.7,84.4,1003.1,282.6,2.0,3.9,241.9,0.41,12.1,13.5,"11:25:28",1
"23/11/17","11:40",0.0,15.4,80.2,1003.1,283.3,2.3,4.7,260.3,0.49,12.0,13.6,"11:34:56",1
"23/11/17","11:50",0.0,15.6,76.5,1003.1,302.8,1.7,5.1,265.7,0.43,11.5,13.8,"11:40:40",1
"23/11/17","12:00",0.0,15.9,73.7,1002.6,292.4,2.1,4.7,238.0,0.47,11.3,13.7,"11:52:48",1
"23/11/17","12:10",0.0,16.2,71.8,1002.9,278.7,2.3,5.2,285.5,0.59,11.2,13.7,"12:09:04",1
"23/11/17","12:20",0.0,16.1,71.4,1002.6,292.9,2.3,4.5,304.1,0.46,11.0,13.7,"12:15:36",1
"23/11/17","12:30",0.0,15.0,71.4,1002.9,322.4,2.6,5.5,316.5,0.15,9.9,13.8,"12:20:48",1
"23/11/17","12:40",0.0,15.2,73.1,1001.9,284.8,2.2,4.7,238.5,0.32,10.5,13.7,"12:36:16",1
"23/11/17","12:50",0.0,16.0,72.0,1002.2,277.4,2.2,4.4,253.8,0.43,11.0,13.7,"12:41:36",1
"23/11/17","13:00",0.0,16.5,70.5,1001.5,277.9,1.8,4.7,340.4,0.48,11.2,13.9,"12:53:36",1
"23/11/17","13:10",0.0,16.3,70.7,1001.5,256.2,1.7,3.5,236.6,0.34,11.0,13.7,"13:01:20",1
"23/11/17","13:20",0.0,15.9,69.0,1001.0,233.3,2.8,6.2,228.4,0.29,10.3,13.8,"13:15:20",1
"23/11/17","13:30",0.0,15.6,69.6,1001.2,243.2,2.2,4.9,237.3,0.16,10.1,13.9,"13:24:56",1
"23/11/17","13:40",0.0,16.1,70.2,1001.5,266.7,1.7,4.1,249.0,0.28,10.7,14.1,"13:39:12",1
"23/11/17","13:50",0.0,15.9,68.4,1001.0,264.8,1.8,3.7,240.3,0.14,10.1,14.1,"13:43:04",1
"23/11/17","14:00",0.0,15.9,67.5,1000.8,258.6,1.7,2.8,244.3,0.15,9.9,14.1,"13:53:52",1
"23/11/17","14:10",0.0,15.6,68.4,1001.0,262.0,1.5,3.1,234.7,0.03,9.8,14.0,"14:07:52",1
"23/11/17","14:20",0.0,15.3,68.9,1000.3,287.8,1.6,3.1,306.2,0.03,9.7,14.2,"14:11:36",1
"23/11/17","14:30",0.0,15.2,69.2,1001.0,313.8,1.6,2.7,322.5,0.03,9.6,14.2,"14:27:52",1
"23/11/17","14:40",0.0,16.1,70.8,1000.8,322.5,1.5,2.8,326.2,0.17,10.8,14.2,"14:35:28",1
"23/11/17","14:50",0.0,17.0,67.2,1000.5,307.5,1.6,3.6,310.8,0.19,10.9,14.2,"14:44:08",1
"23/11/17","15:00",0.0,17.0,63.2,1000.8,279.2,2.0,5.5,199.7,0.14,10.0,14.2,"14:58:08",1
"23/11/17","15:10",0.0,16.2,58.2,1000.8,273.5,2.6,5.1,299.7,0.08,8.0,14.3,"15:07:52",1
"23/11/17","15:20",0.0,16.1,56.8,1001.2,276.1,2.5,6.4,242.1,0.06,7.6,14.2,"15:16:24",1
"23/11/17","15:30",0.0,15.9,55.7,1001.0,276.2,2.5,6.8,237.9,0.04,7.1,14.4,"15:20:32",1
"23/11/17","15:40",0.0,16.1,55.5,1001.2,283.8,2.5,5.4,243.4,0.05,7.2,14.2,"15:30:24",1
"23/11/17","15:50",0.0,16.6,62.0,1001.0,322.6,1.8,4.2,350.5,0.06,9.3,14.3,"15:43:52",1
"23/11/17","16:00",0.0,16.2,64.1,1001.0,323.7,1.7,3.3,333.3,0.05,9.5,14.5,"15:52:48",1
"23/11/17","16:10",0.0,15.5,66.1,1001.5,310.1,1.7,3.3,321.3,0.01,9.2,14.4,"16:01:52",1
"23/11/17","16:20",0.0,14.8,64.0,1001.5,295.0,1.8,4.3,298.0,0.00,8.1,14.4,"16:16:12",1
"23/11/17","16:30",0.0,14.8,60.0,1001.9,266.0,1.8,2.9,247.9,0.00,7.2,14.2,"16:23:54",1
"23/11/17","16:40",0.0,14.6,59.9,1001.9,288.2,1.7,3.3,300.9,0.00,6.9,14.4,"16:36:22",1
"23/11/17","16:50",0.0,14.0,65.4,1001.9,293.8,2.1,4.2,264.7,0.00,7.7,14.3,"16:45:56",1
"23/11/17","17:00",0.0,13.1,69.2,1002.4,282.3,2.0,4.0,225.8,0.00,7.6,14.3,"16:53:20",1
"23/11/17","17:10",0.0,12.5,71.2,1001.9,310.6,2.3,4.7,302.6,0.00,7.5,14.3,"17:04:08",1
"23/11/17","17:20",0.0,12.2,72.4,1002.2,302.9,2.3,3.6,344.7,0.00,7.4,14.2,"17:12:44",1
"23/11/17","17:30",0.0,12.0,73.3,1002.4,304.4,2.2,3.7,329.3,0.00,7.4,14.2,"17:22:48",1
"23/11/17","17:40",0.0,11.9,73.9,1002.4,303.0,2.2,3.1,310.9,0.00,7.4,14.2,"17:32:24",1
"23/11/17","17:50",0.0,11.8,74.6,1002.6,304.1,2.1,2.6,297.5,0.00,7.5,14.3,"17:47:52",1
"23/11/17","18:00",0.0,11.8,75.2,1003.1,306.7,2.2,2.9,310.7,0.00,7.6,14.2,"17:59:40",1
"23/11/17","18:10",0.0,11.9,75.3,1002.9,292.9,2.2,2.9,281.8,0.00,7.7,14.2,"18:05:44",1
"23/11/17","18:20",0.0,11.9,75.2,1003.1,299.5,2.0,3.2,316.3,0.00,7.7,14.0,"18:16:02",1
"23/11/17","18:30",0.0,11.8,75.2,1003.4,301.0,2.1,3.9,317.8,0.00,7.6,14.0,"18:23:28",1
"23/11/17","18:40",0.0,11.8,75.4,1003.1,303.4,2.2,2.8,316.8,0.00,7.6,14.0,"18:34:08",1
"23/11/17","18:50",0.0,11.8,75.5,1003.1,313.1,2.3,4.7,314.5,0.00,7.7,14.0,"18:46:42",1
"23/11/17","19:00",0.0,11.6,75.5,1003.1,299.0,1.7,2.6,318.8,0.00,7.5,14.1,"18:56:40",1
"23/11/17","19:10",0.0,11.5,75.5,1003.1,283.9,1.8,2.9,292.9,0.00,7.4,13.9,"19:08:34",1
"23/11/17","19:20",0.0,11.5,75.6,1003.6,282.1,1.7,3.4,251.5,0.00,7.4,14.1,"19:18:12",1
"23/11/17","19:30",0.0,11.5,75.3,1003.6,297.4,2.2,3.5,250.7,0.00,7.3,14.0,"19:26:28",1
"23/11/17","19:40",0.0,11.5,74.8,1003.6,288.8,2.2,3.4,296.1,0.00,7.2,14.0,"19:37:32",1
"23/11/17","19:50",0.0,11.5,74.3,1004.1,277.7,2.5,3.9,330.5,0.00,7.1,14.0,"19:40:28",1
"23/11/17","20:00",0.0,11.4,74.0,1003.8,296.9,2.2,3.1,257.8,0.00,7.0,13.7,"19:50:12",1
"23/11/17","20:10",0.0,11.2,74.0,1003.8,303.3,2.2,3.6,319.5,0.00,6.8,14.1,"20:06:42",1
"23/11/17","20:20",0.0,11.1,73.7,1003.6,307.0,2.3,4.3,337.9,0.00,6.6,13.9,"20:13:34",1
"23/11/17","20:30",0.0,10.9,73.8,1004.1,300.2,2.2,3.5,322.7,0.00,6.5,13.8,"20:20:08",1
"23/11/17","20:40",0.0,10.8,73.6,1003.8,305.2,2.0,3.6,333.0,0.00,6.3,13.6,"20:31:44",1
"23/11/17","20:50",0.0,10.6,73.8,1004.1,300.3,1.8,2.5,309.0,0.00,6.2,14.0,"20:41:28",1
"23/11/17","21:00",0.0,10.4,74.5,1003.6,297.0,1.7,2.5,307.1,0.00,6.1,13.7,"20:51:52",1
"23/11/17","21:10",0.0,10.2,75.4,1003.8,306.7,2.0,2.2,323.3,0.00,6.1,13.8,"21:02:08",1
"23/11/17","21:20",0.0,9.9,76.9,1003.4,311.8,2.2,2.8,313.5,0.00,6.1,13.6,"21:15:20",1
"23/11/17","21:30",0.0,9.4,78.3,1003.4,299.0,2.0,2.6,306.2,0.00,5.9,14.0,"21:20:40",1
"23/11/17","21:40",0.0,8.9,79.9,1003.1,290.1,1.8,2.4,307.0,0.00,5.7,13.8,"21:31:28",1
"23/11/17","21:50",0.0,8.4,81.5,1003.4,282.9,1.8,2.5,288.8,0.00,5.5,13.7,"21:45:04",1
"23/11/17","22:00",0.0,8.2,83.4,1003.4,281.3,2.0,3.2,274.6,0.00,5.6,13.5,"21:51:36",1
"23/11/17","22:10",0.0,7.9,84.7,1003.1,299.7,2.3,3.5,319.5,0.00,5.5,13.6,"22:08:56",1
"23/11/17","22:20",0.0,7.5,85.8,1002.9,297.7,2.1,2.9,310.9,0.00,5.3,13.7,"22:13:52",1
"23/11/17","22:30",0.0,7.3,87.0,1002.9,295.3,2.6,4.2,310.2,0.00,5.3,13.4,"22:23:12",1
"23/11/17","22:40",0.0,7.2,87.9,1002.6,288.8,2.3,3.2,300.7,0.00,5.4,13.3,"22:33:36",1
"23/11/17","22:50",0.0,7.0,88.6,1002.2,300.6,2.6,3.5,309.7,0.00,5.3,13.3,"22:42:24",1
"23/11/17","23:00",0.0,6.7,89.1,1002.4,297.4,2.5,3.3,317.7,0.00,5.1,13.3,"22:53:28",1
"23/11/17","23:10",0.0,6.5,89.7,1002.4,305.0,2.5,4.2,325.0,0.00,5.0,13.2,"23:08:56",1
"23/11/17","23:20",0.0,6.5,90.0,1002.4,318.2,2.7,4.0,308.6,0.00,5.0,13.2,"23:10:24",1
"23/11/17","23:30",0.0,6.2,90.3,1002.4,302.0,2.2,2.8,301.3,0.00,4.8,13.1,"23:27:04",1
"23/11/17","23:40",0.0,6.1,90.7,1002.4,285.7,2.1,2.8,306.1,0.00,4.7,13.2,"23:38:48",1
"23/11/17","23:50",0.0,6.1,91.0,1002.2,291.9,2.3,3.4,296.7,0.00,4.8,13.1,"23:49:12",1
"23/11/17","24:00",0.0,6.2,91.2,1001.9,296.5,2.7,3.5,315.9,0.00,4.9,13.1,"23:52:40",1
